WB9FQS Weather Reports


time (UTC)temp
C
wind
direction
speed
KPH
gust
KPH
rain 1hr
cm
rain 24hr
cm
rain mn
cm
humidity
%
barometer
mb
20260906103027 21 168 0.0 3.2 0.00 0.00 0.00 1 1016.8
20260906101524 21 174 0.0 3.2 0.00 0.00 0.00 1 1016.8
20260906100024 21 173 0.0 1.6 0.00 0.00 0.00 1 1016.7
20260906094513 21 193 0.0 3.2 0.00 0.00 0.00 9 1016.5
20260906093010 21 213 0.0 4.8 0.00 0.00 0.00 9 1016.5
20260906091504 21 186 0.0 1.6 0.00 0.00 0.00 1 1016.2
20260906084556 21 166 0.0 3.2 0.00 0.00 0.00 1 1016.4
20260906083054 21 167 0.0 4.8 0.00 0.00 0.00 1 1016.3
20260906081547 21 166 0.0 3.2 0.00 0.00 0.00 1 1016.4
20260906080046 21 173 0.0 3.2 0.00 0.00 0.00 1 1016.3
20260906074539 20 175 0.0 0.0 0.00 0.00 0.00 1 1016.3
20260906073034 20 176 0.0 0.0 0.00 0.00 0.00 1 1016.3
20260906071531 21 173 0.0 0.0 0.00 0.00 0.00 10 1016.1
20260906070028 21 173 0.0 0.0 0.00 0.00 0.00 22 1016.2
20260906064527 21 170 0.0 1.6 0.00 0.00 0.00 15 1016.1
20260906063026 21 173 0.0 1.6 0.00 0.00 0.00 24 1016.2
20260906061525 21 170 0.0 1.6 0.00 0.00 0.00 25 1016.2
20260906060027 22 170 0.0 3.2 0.00 0.00 0.00 25 1016.1
20260906054536 22 171 0.0 1.6 0.00 0.00 0.00 33 1015.8
20260906053017 22 169 0.0 4.8 0.00 0.00 0.00 36 1015.7
20260906051514 22 176 0.0 6.4 0.00 0.00 0.00 45 1015.5
20260906050012 22 160 1.6 8.0 0.00 0.00 0.00 47 1015.5
20260906044507 22 145 3.2 8.0 0.00 0.00 0.00 34 1015.4
20260906043013 22 146 1.6 6.4 0.00 0.00 0.00 24 1015.3
20260906041559 22 135 4.8 9.7 0.00 0.00 0.00 24 1015.2
20260906040133 22 150 3.2 8.0 0.00 0.00 0.00 47 1015.3
20260906034602 23 147 3.2 9.7 0.00 0.00 0.00 58 1015.2
20260906033102 23 143 4.8 8.0 0.00 0.00 0.00 53 1015.2
20260906031542 23 142 1.6 6.4 0.00 0.00 0.00 45 1015.1
20260906030037 23 139 0.0 6.4 0.00 0.00 0.00 51 1014.9
20260906024532 23 145 0.0 8.0 0.00 0.00 0.00 50 1015.0
20260906023028 23 152 0.0 8.0 0.00 0.00 0.00 42 1015.0
20260906021524 23 145 0.0 4.8 0.00 0.00 0.00 21 1015.1
20260906020019 22 146 0.0 8.0 0.00 0.00 0.00 14 1014.9
20260906014515 22 154 0.0 9.7 0.00 0.00 0.00 1 1014.6
20260906013011 22 145 3.2 11.3 0.00 0.00 0.00 6 1014.3
20260906011514 22 129 4.8 11.3 0.00 0.00 0.00 5 1014.2
20260906010002 22 126 0.0 9.7 0.00 0.00 0.00 21 1014.0
20260906004558 22 107 1.6 8.0 0.00 0.00 0.00 30 1014.0
20260906003054 22 121 0.0 9.7 0.00 0.00 0.00 31 1014.0
20260906001548 22 116 3.2 8.0 0.00 0.00 0.00 33 1014.0
20260906000044 22 26 0.0 4.8 0.00 0.00 0.00 45 1014.0
20260905234540 22 130 0.0 6.4 0.00 0.00 0.00 34 1013.9
20260905233035 22 119 1.6 9.7 0.00 0.00 0.00 47 1013.9
20260905231531 23 125 1.6 12.9 0.00 0.00 0.00 36 1014.0
20260905230026 23 125 1.6 8.0 0.00 0.00 0.00 44 1013.9
20260905224553 23 90 0.0 9.7 0.00 0.00 0.00 47 1013.8
20260905223021 23 86 0.0 4.8 0.00 0.00 0.00 48 1013.8
20260905221512 23 93 0.0 14.5 0.00 0.00 0.00 53 1013.7
20260905220008 23 131 0.0 11.3 0.00 0.00 0.00 55 1013.6
20260905214504 23 118 1.6 11.3 0.00 0.00 0.00 47 1013.5
20260905213104 23 135 3.2 16.1 0.00 0.00 0.00 45 1013.4
20260905211557 23 152 4.8 14.5 0.00 0.00 0.00 48 1013.3
20260905210100 23 152 3.2 14.5 0.00 0.00 0.00 58 1013.4
20260905204546 23 121 9.7 16.1 0.00 0.00 0.00 54 1013.3
20260905203045 24 136 3.2 11.3 0.00 0.00 0.00 54 1013.4
20260905201538 23 94 1.6 16.1 0.00 0.00 0.00 61 1013.5
20260905200034 23 142 1.6 11.3 0.00 0.00 0.00 54 1013.5
20260905194528 23 138 0.0 14.5 0.00 0.00 0.00 56 1013.5
20260905193024 24 342 4.8 14.5 0.00 0.00 0.00 64 1013.5
20260905191520 25 55 3.2 9.7 0.00 0.00 0.00 65 1013.6
20260905190015 25 83 0.0 6.4 0.00 0.00 0.00 52 1013.5
20260905184524 25 90 6.4 14.5 0.00 0.00 0.00 66 1013.4
20260905183006 25 97 0.0 6.4 0.00 0.00 0.00 72 1013.4
20260905181503 26 109 0.0 6.4 0.00 0.00 0.00 71 1013.4
20260905180105 26 87 0.0 8.0 0.00 0.00 0.00 66 1013.4
20260905174553 26 73 1.6 11.3 0.00 0.00 0.00 75 1013.3
20260905173105 26 76 0.0 11.3 0.00 0.00 0.00 76 1013.2
20260905171546 26 77 6.4 11.3 0.00 0.00 0.00 75 1013.3
20260905170044 26 83 0.0 9.7 0.00 0.00 0.00 76 1013.3
20260905164535 26 80 3.2 12.9 0.00 0.00 0.00 74 1013.5
20260905163031 27 127 0.0 4.8 0.00 0.00 0.00 73 1013.5
20260905161526 27 101 0.0 4.8 0.00 0.00 0.00 70 1013.5
20260905160021 27 102 0.0 6.4 0.00 0.00 0.00 71 1013.4
20260905154517 26 86 0.0 9.7 0.00 0.00 0.00 63 1013.2
20260905153018 26 112 0.0 8.0 0.00 0.00 0.00 32 1013.2
20260905151518 25 93 1.6 9.7 0.00 0.00 0.00 33 1013.2
20260905150004 25 97 3.2 9.7 0.00 0.00 0.00 19 1013.1
20260905144600 25 111 0.0 6.4 0.00 0.00 0.00 1 1013.0
20260905143058 25 100 3.2 8.0 0.00 0.00 0.00 1 1012.8
20260905141551 25 94 1.6 9.7 0.00 0.00 0.00 1 1013.0
20260905140045 26 111 0.0 1.6 0.00 0.00 0.00 13 1013.2
20260905134542 26 129 0.0 4.8 0.00 0.00 0.00 1 1012.8
20260905133040 25 104 0.0 6.4 0.00 0.00 0.00 1 1012.8
20260905131533 26 126 0.0 0.0 0.00 0.00 0.00 1 1012.6
20260905130029 25 128 0.0 1.6 0.00 0.00 0.00 1 1012.4
20260905124524 24 136 0.0 3.2 0.00 0.00 0.00 1 1012.3
20260905123019 24 129 0.0 1.6 0.00 0.00 0.00 1 1012.2
20260905121515 24 129 0.0 1.6 0.00 0.00 0.00 1 1012.1
20260905120011 24 129 0.0 1.6 0.00 0.00 0.00 1 1011.9
20260905114507 24 116 0.0 1.6 0.00 0.00 0.00 1 1011.9
20260905113002 23 128 0.0 0.0 0.00 0.00 0.00 1 1011.7
20260905111558 24 128 0.0 0.0 0.00 0.00 0.00 1 1011.5
20260905110054 24 128 0.0 1.6 0.00 0.00 0.00 1 1011.4
20260905104551 24 126 0.0 0.0 0.00 0.00 0.00 1 1011.4